Showing default

SPAINSAT NG II, 66144

Orbit data source: Space-Track

SPAINSAT NG II, 66144 is a payload satellite owned by Hisdesat (ES) in HEO that was launched on Fri, 24 Oct 2025 UTC via an FALCON 9 launch vehicle from the Air Force Eastern Test Range (AFETR). Payload-class satellites include a variety of spacecraft equipped with specific instruments for various scientific and technological missions. These include communications satellites like Starlink; space stations such as the ISS; scientific satellites like the Hubble; Earth observation satellites from companies like Planet Labs, Umbra, and HawkEye 360; GPS; miniature CubeSats for education and research; and military/defense satellites.

Loading next visibility...
Identifier
66144, 2025-239A
Orbit
HEO
Country
Flag of ESES / SPN
Related business
Manufacturer
ADST/ADSUK
Mission
Operational spacecraft
Bus & Motor
EUROSTAR NEO, PPS-5000
Mass
6,100 kg wet, ~5,500 kg dry
Launch date (UTC)
2025-10-24 (3 weeks ago)
Launch vehicle
FALCON 9
Launch site
Air Force Eastern Test Range (AFETR)
Object type
Payload
Rocket body
Debris
Shape & HBR
Unknown shape, 14.5 m
Radar Cross Section
RCS unknown

Expand to show TLE details & history
Last TLE update: 4 days ago

TLE from 4 days ago
0 SPAINSAT NG II
1 66144U 25239A   25311.56312971 -.00000289  00000-0  00000-0 0  9998
2 66144  23.0112 244.8198 8080189 181.7023 170.8897  1.10251161   181
Epoch: 2025-11-07T13:30Z
TLE epoch observation values (Epoch: 2025-11-07T13:30:54.406Z)
Latitude
0.0001°
Longitude
-4.91109°
Altitude
65,112.091 km
Speed
1.039 km/s
True Right ascension
16h 19m 17s
True Declination
0° 00' 00"
Sunlit
Object was in daylight at epoch
Visualization orbit readout
Latitude
Unknown
Longitude
Unknown
Altitude
Unknown
Speed
Unknown
Apparent Right ascension
Unknown
Apparent Declination
Unknown
Sunlit
N/A
Visualization observer readout
Local Sidereal Time
10:17:44
Azimuth
Unknown
Elevation
Unknown
Doppler factor
Unknown
Orbital elements
Apogee altitude
65,191.527 km
Perigee altitude
1,221.354 km
Semi-major axis
39,584.577 km
Eccentricity
0.80802
Inclination
23.0112°
RAAN
244.8198°
Arg. of periapsis
181.7023°
True anomaly
178.35616°
Mean anomaly
170.8897°
Eccentric anomaly
174.95826°
Mean motion
0.27558 °/min
Orbital period
1,306.32 mins
BSTAR
0
Loading maneuver chart data...
Computing Atmospheric mass density...
Loading historical data...
Loading historical data...
Loading historical data...
Loading historical data...
Loading historical data...
Loading historical data...
Loading historical data...
Other satellites on launch #239 in the year 2025 (2025-10-24 UTC)

Documentation

Showing up to 5 results
|